Downstream station:
SHEF ID: ENWK1 CROOKED C NR ENGLEWOOD, KS
STATION TYPE:
Regulating: Stage = 6.50, Flow = 243
PRECIP STAGE RIV-FLOW BAT-LOAD
in ft cfs volt
Ccp-Rev Ccp-Rev Ccp-Rev Ccp-Rev
(US/Central)
01/15 00:00 0.00 2.42 3 12.89
01/15 01:00 0.00 2.41 3 12.89
01/15 02:00 0.00 2.42 3 12.83
01/15 03:00 0.00 2.42 3 12.83
01/15 04:00 0.00 2.41 3 12.77
01/15 05:00 0.00 2.41 3 12.71
01/15 06:00 0.00 2.41 3 12.71
01/15 07:00 0.00 2.41 3 12.65
01/15 08:00 0.00 2.40 3 12.60
01/15 09:00 0.00 2.41 3 13.00
01/15 10:00 0.00 2.40 3 14.24
01/15 11:00 0.00 2.37 3 14.88
01/15 12:00 0.00 2.34 2 14.76
01/15 13:00 0.00 2.30 2 14.71
01/15 14:00 0.00 2.27 2 14.65
01/15 15:00 0.00 2.31 2 14.59
01/15 16:00 0.00 2.40 3 14.53
01/15 17:00 0.00 2.44 4 14.12
01/15 18:00 0.00 2.44 4 13.94
01/15 19:00 0.00 2.44 4 13.36
01/15 20:00 0.00 2.45 4 13.00
01/15 21:00 0.00 2.44 4 12.83
01/15 22:00 0.00 2.45 4 12.89
01/15 23:00 ---- ---- ---- ----